Showing default

COSMOS 1563, 15002

Orbit data source: Space-Track

COSMOS 1563, 15002 is a payload satellite owned by GUKOS (CIS) in LEO that was launched on Mon, 28 May 1984 UTC via a KOSMOS 11K65M launch vehicle from the Plesetsk Missile And Space Complex (PKMTR). Payload-class satellites include a variety of spacecraft equipped with specific instruments for various scientific and technological missions. These include communications satellites like Starlink; space stations such as the ISS; scientific satellites like the Hubble; Earth observation satellites from companies like Planet Labs, Umbra, and HawkEye 360; GPS; miniature CubeSats for education and research; and military/defense satellites.

Loading next visibility...
Identifier
15002, 1984-052E
Orbit
LEO
Country
Flag of CISCIS
Related business
Manufacturer
NPO PM
Mission
Spacecraft
Bus & Motor
STRELA-1 11F625, Unknown motor
Mass
60 kg wet, 60 kg dry
Launch date (UTC)
1984-05-28 (42 years ago)
Launch vehicle
KOSMOS 11K65M
Launch site
Plesetsk Missile And Space Complex (PKMTR)
Object type
Payload
Rocket body
Debris
Shape & HBR
Unknown
Radar Cross Section
Medium (>0.1 m² and <1 m²)

Expand to show TLE details & history
Last TLE update: 8 hours ago

TLE from 8 hours ago
0 COSMOS 1563
1 15002U 84052E   26037.02935065 -.00000009  00000-0  44374-4 0  9991
2 15002  74.0104  59.4215 0025288 229.8016 157.0636 12.51838120637796
Epoch: 2026-02-06T00:42Z
TLE epoch observation values (Epoch: 2026-02-06T00:42:15.896Z)
Latitude
25.89075°
Longitude
-79.36244°
Altitude
1,477.726 km
Speed
7.118 km/s
True Right ascension
04h 29m 30s
True Declination
25° 46' 06"
Sunlit
Object was in daylight at epoch
Visualization orbit readout
Latitude
Unknown
Longitude
Unknown
Altitude
Unknown
Speed
Unknown
Apparent Right ascension
Unknown
Apparent Declination
Unknown
Sunlit
N/A
Visualization observer readout
Local Sidereal Time
11:07:17
Azimuth
Unknown
Elevation
Unknown
Doppler factor
Unknown
Orbital elements
Apogee altitude
1,474.458 km
Perigee altitude
1,434.843 km
Semi-major axis
7,832.787 km
Eccentricity
0.00253
Inclination
74.0104°
RAAN
59.4215°
Arg. of periapsis
229.8016°
True anomaly
157.1762°
Mean anomaly
157.0636°
Eccentric anomaly
157.11993°
Mean motion
3.1309 °/min
Orbital period
114.98 mins
BSTAR
0.000044374
Loading maneuver chart data...
Computing Atmospheric mass density...
Loading historical data...
Loading historical data...
Loading historical data...
Loading historical data...
Loading historical data...
Loading historical data...
Loading historical data...

Documentation

Showing up to 5 results
|